Voltar ao catálogo

NAVSTAR 15

USA 42

AtivoNavegaçãoMEO
NORAD 20185·PAYLOAD·🇺🇸 United States

Lançado Aug 18, 1989 de Cape Canaveral Space Force Station

Loading…

Próximas Passagens (próximas 24 horas)

TLE

AtualizadoSource: Space-Track

Época: Sep 7, 2026, 22:27 UTC

1 20185U 89064A   26250.93546580  .00000025  00000-0  00000-0 0  9995
2 20185  55.0361  86.5492 0008642 346.8131 191.2167  1.86088523257741

Acompanhe NAVSTAR 15 em tempo real com AllMySat

Download on the App Store